User: anonymous   Login
Location: Mentone
(34.5413°N, 85.5351°W)
Time: 19:30:38
(UTC-06:00)
Language:

UOSAT-12 - Orbit

View from above orbital plane
View from above orbital plane
View from above satellite
View from above satellite

Ground track
Ground track

The orbit data is extracted from the following two-line orbital elements,

1 25693U 99021A   14352.55569669  .00000925  00000-0  13792-3 0  6945
2 25693 064.5572 054.6190 0049275 264.5176 197.1019 14.80215238845200
Epoch (UTC): 18 December 2014 13:20:12
Eccentricity: 0.0049275
inclination: 64.5572°
perigee height: 594 km
apogee height: 663 km
right ascension of ascending node: 54.6190°
argument of perigee: 264.5176°
revolutions per day: 14.80215238
mean anomaly at epoch: 197.1019°
orbit number at epoch: 84520

The dashed part of the orbit path shows where the satellite is in the earth's shadow,  

DLR